Flag for Poland Weather past 2 weeks in Kraków, Poland

Now
77 °F

Passing clouds.


Feels Like: 79 °F
Forecast: 64 / 92 °F
Wind: 10 mph from East

Location: Krakow Airport

Current Time: Aug 3, 2015 at 6:14:33 PM

Latest Report: Aug 3, 2015 at 5:30 PM


Visibility: N/A

Pressure: 30.09 "Hg

Humidity: 54%

Dew point: 59 °F

Location of KrakówLocation

Historic Weather in Kraków — Graph

°F

Kraków temperature yesterday

Maximum temperature yesterday: 81 °F (at 2:00 PM)
Minimum temperature yesterday: 55 °F (at 3:30 AM)
Average temperature yesterday: 67 °F

Past Weeks' High & Low Weather Summary

 TemperatureHumidityPressure
High91 °F (Jul 23, 11:00 AM)100% (Jul 20, 12:30 AM)30.15 "Hg (Jul 20, 12:30 AM)
Low48 °F (Aug 1, 3:00 AM)31% (Jul 30, 3:30 PM)29.65 "Hg (Jul 25, 3:00 PM)
Average69 °F65%29.93 "Hg
* Reported Jul 19 5:00 PM — Aug 3 5:00 PM, Kraków, Weather by CustomWeather, © 2015

Note: Actual official high and low records may vary slightly from our data, if they occured in-between our weather recording intervals... More about our weather records

Advertising

Kraków weather history for previous 24 hours

 ConditionsComfort  
Time TempWeatherWind HumidityBarometerVisibility
5:00 PM
Mon, Aug 3
79 °FPassing clouds.10 mph51%30.09 "HgN/A
4:30 PM81 °FPassing clouds.10 mph48%30.09 "HgN/A
4:00 PM81 °FPassing clouds.10 mph48%30.09 "HgN/A
3:30 PM81 °FPassing clouds.14 mph42%30.09 "HgN/A
3:00 PM82 °FPassing clouds.13 mph42%30.09 "HgN/A
2:30 PM84 °FPassing clouds.6 mph40%30.12 "HgN/A
2:00 PM82 °FPassing clouds.8 mph40%30.12 "HgN/A
1:30 PM81 °FPassing clouds.7 mph42%30.12 "HgN/A
1:00 PM82 °FSunny.5 mph40%30.12 "Hg10 mi
12:30 PM79 °FPassing clouds.5 mph42%30.12 "HgN/A
12:00 PM79 °FSunny.6 mph42%30.12 "Hg10 mi
11:30 AM79 °FSunny.5 mph39%30.12 "Hg10 mi
11:00 AM77 °FSunny.2 mph54%30.12 "Hg10 mi
10:30 AM75 °FPassing clouds.3 mph47%30.12 "HgN/A
10:00 AM73 °FSunny.2 mph53%30.12 "Hg10 mi
9:30 AM72 °FSunny.2 mph61%30.12 "Hg10 mi
9:00 AM70 °FSunny.2 mph64%30.12 "Hg10 mi
8:30 AM66 °FSunny.2 mph68%30.12 "Hg10 mi
8:00 AM61 °FSunny.2 mph83%30.12 "Hg10 mi
7:30 AM59 °FSunny.2 mph88%30.12 "Hg10 mi
7:00 AM57 °FSunny.1 mph88%30.12 "Hg10 mi
6:30 AM57 °FSunny.2 mph94%30.12 "Hg10 mi
6:00 AM55 °FClear.3 mph94%30.12 "Hg10 mi
5:30 AM55 °FClear.3 mph94%30.12 "Hg10 mi
5:00 AM55 °FClear.1 mph94%30.12 "Hg10 mi
4:30 AM55 °FClear.1 mph94%30.12 "Hg10 mi
4:00 AM57 °FClear.1 mph88%30.12 "Hg10 mi
3:30 AM57 °FClear.2 mph88%30.12 "Hg10 mi
3:00 AM57 °FClear.2 mph88%30.12 "Hg10 mi
2:30 AM59 °FClear.1 mph82%30.12 "Hg10 mi
2:00 AM59 °FClear.1 mph88%30.12 "Hg10 mi
1:30 AM59 °FClear.1 mph88%30.12 "Hg10 mi
1:00 AM61 °FClear.2 mph88%30.12 "Hg10 mi
12:00 AM63 °FClear.2 mph77%30.15 "Hg10 mi
11:30 PM
Sun, Aug 2
64 °FClear.1 mph73%30.15 "Hg10 mi
11:00 PM63 °FClear.1 mph77%30.15 "Hg10 mi
10:30 PM63 °FClear.1 mph77%30.15 "Hg10 mi
10:00 PM64 °FClear.2 mph73%30.15 "Hg10 mi
9:30 PM64 °FClear.2 mph73%30.12 "Hg10 mi
9:00 PM68 °FSunny.2 mph60%30.12 "Hg10 mi
8:30 PM68 °FSunny.1 mph64%30.12 "Hg10 mi
8:00 PM68 °FSunny.6 mph69%30.12 "Hg10 mi
7:30 PM70 °FPassing clouds.5 mph64%30.12 "HgN/A
7:00 PM72 °FPassing clouds.3 mph61%30.12 "HgN/A
6:30 PM72 °FSprinkles. Passing clouds.6 mph53%30.12 "HgN/A
6:00 PM75 °FSunny.5 mph50%30.12 "Hg10 mi
Weather by CustomWeather, © 2015

See weather overviewHow to use our weather pages